Weather in El-Tor

Egypt     28°14′21″N   33°37′32″E
temp.,
°C
wind,
m/s
gust,
m/s
humid.,
%
clouds,
%
prec.,
mm/h
press.,
hPa
HPBL,
m
16 june, wed
wed1623:00+26nnw23270 0.0 100722
02:00+24nw33350 0.0 100836
05:00+23nw33360 0.0 100829
08:00+30wnw55240 0.0 1010601
11:00+35wnw118190 0.0 10091615
14:00+36wnw1310170 0.0 10071485
17:00+34nw1312160 0.0 10071082
20:00+30nnw79220 0.0 1009114
17 june, thu
thu1723:00+27nnw44280 0.0 101035
02:00+24nw34380 0.0 101149
05:00+21nw34500 0.0 101153
08:00+27wnw43350 0.0 1012474
11:00+33w75240 0.0 10111053
14:00+35wnw87210 0.0 10101129
17:00+35wnw77190 0.0 1008993
20:00+29nnw22230 0.0 100930
18 june, fri
fri1823:00+26wnw33310 0.0 101035
02:00+22nw34450 0.0 101073
05:00+20nw12560 0.0 101031
08:00+26wnw33340 0.0 1010360
11:00+33w64230 0.0 1009812
14:00+35w76230 0.0 10071084
17:00+35wnw66210 0.0 1006834
20:00+29n12280 0.0 100724
19 june, sat
sat1923:00+26wnw34330 0.0 100741
02:00+23wnw34500 0.0 100771
05:00+21nw23530 0.0 100845
08:00+28wnw32330 0.0 1008365
11:00+34w64220 0.0 1008973
14:00+36w86200 0.0 10061273
17:00+36wnw88150 0.0 10051083
20:00+31nw56200 0.0 100671
20 june, sun
sun2023:00+28wnw23260 0.0 100728
02:00+24wnw33430 0.0 100839
05:00+22wnw12430 0.0 100826
08:00+30w22240 0.0 1009322
11:00+36w64160 0.0 10081236
14:00+37wnw108140 0.0 10061396
17:00+36nw1010130 0.0 1006980
20:00+31nw610180 0.0 1007109